Wind_Speed
13 13 12 12 12 12 12 11 11 11 12 12 12 12 12 12 11 11 11 11 11 11 10 10 10 10 9 8 8 8 8 7 7 7 7 7 6 6 6 6 5 5 4
14 14 14 14 13 13 13 13 13 13 13 13 13 13 13 13 13 13 12 12 12 12 12 12 12 11 11 10 9 9 8 8 8 8 8 8 7 7 7 7 6 6 5
15 16 15 15 15 15 14 15 14 14 15 15 15 15 15 15 15 14 14 14 14 14 14 14 13 13 12 12 11 10 10 10 10 9 9 9 9 8 8 7 7 6 7
17 17 17 17 17 16 16 16 16 16 16 17 16 16 17 17 16 16 16 15 15 15 15 15 15 15 14 13 13 12 12 12 11 11 11 11 10 10 9 9 8 8 8
19 19 19 19 18 19 18 18 18 18 18 18 18 18 18 18 18 18 17 17 17 17 17 17 16 16 16 15 15 14 14 13 13 13 12 12 12 11 11 11 10 10 9
21 21 21 20 20 20 20 20 20 19 19 19 19 19 20 20 20 20 20 19 19 18 18 18 18 18 18 17 17 16 15 15 14 14 14 14 13 13 13 12 12 11 11
23 23 23 22 22 22 22 22 22 21 21 20 20 20 20 21 21 21 21 21 21 21 20 20 20 20 20 19 19 18 17 17 16 16 16 16 15 15 15 14 13 13 12
25 25 24 24 24 24 24 24 24 23 23 23 22 22 22 22 22 22 22 22 23 23 23 22 22 22 22 22 21 20 20 19 18 18 18 17 17 17 17 16 16 15 14
26 26 26 26 26 25 26 26 26 25 25 25 24 24 24 24 24 23 23 23 24 24 24 24 24 24 24 24 23 22 21 21 20 20 19 19 19 19 18 18 17 17 17
28 28 28 27 27 27 27 28 28 28 28 27 27 26 26 26 26 25 25 25 25 25 25 25 25 25 26 25 25 24 23 22 22 21 21 20 20 20 20 19 19 18 18
29 29 29 29 29 29 29 30 29 29 29 29 29 29 28 28 28 27 27 27 27 27 27 27 27 27 27 27 26 26 25 24 23 23 22 22 21 21 21 21 21 20 19
29 30 31 31 31 31 31 31 31 30 30 30 30 30 30 30 30 30 30 30 30 29 29 29 29 28 28 28 28 28 27 26 26 25 24 24 23 23 23 23 23 22 22
30 31 32 33 33 33 33 33 33 32 32 32 32 32 32 32 32 32 32 32 32 32 32 31 31 31 30 30 30 30 29 29 28 27 27 27 26 26 26 25 24 24 24
32 32 33 34 34 35 35 35 35 35 34 34 34 35 35 34 34 35 35 35 34 34 34 34 34 34 34 33 32 32 31 31 30 29 29 29 29 28 28 27 27 27 25
33 33 34 35 36 36 37 37 37 37 37 37 37 37 37 37 37 37 37 37 37 37 37 37 36 36 36 36 35 34 34 33 33 32 31 31 31 30 30 30 29 29 28
34 35 36 37 37 38 39 39 40 40 40 40 40 40 40 40 40 40 40 40 40 39 39 39 38 38 39 38 38 37 36 36 35 34 34 33 33 33 32 31 31 30 29
35 36 38 38 39 40 41 42 42 43 43 43 43 43 43 43 43 42 42 42 43 42 42 41 41 41 41 41 40 39 39 38 38 37 36 36 35 35 34 34 33 33 32
37 38 39 40 41 42 42 43 44 44 45 45 45 46 46 46 46 44 44 45 45 44 44 43 44 43 43 43 42 42 41 41 40 40 39 38 37 37 36 36 36 35 35
38 39 40 41 42 43 44 45 45 46 47 47 48 48 48 48 48 47 46 47 47 47 46 45 45 45 45 45 44 44 44 43 42 42 41 40 39 39 38 38 38 38 37
39 40 41 42 43 44 44 46 47 47 48 49 49 50 50 50 50 50 49 49 49 49 49 48 47 47 47 47 47 47 47 46 45 44 44 43 42 41 40 40 40 40 39
40 41 42 43 44 45 45 46 48 48 49 50 51 52 52 52 52 52 52 51 51 50 50 49 49 49 49 49 49 49 49 49 48 47 47 46 45 44 43 42 42 41 41
41 42 43 43 43 44 46 47 47 48 49 50 51 52 52 52 53 53 53 52 52 52 52 52 51 50 50 51 51 51 51 51 51 49 49 48 48 47 46 44 43 43 43
41 42 43 44 44 45 46 46 47 49 49 49 50 51 52 53 53 53 53 53 52 53 53 54 54 53 51 51 52 53 53 52 53 52 51 50 50 49 49 48 46 45 44
41 42 44 45 45 45 46 48 47 48 50 50 51 51 51 52 52 52 52 53 53 54 54 54 54 54 53 53 53 54 54 54 55 54 54 52 52 51 50 50 49 48 47
42 43 44 45 46 47 47 48 49 49 50 50 51 51 51 51 52 52 52 53 53 53 53 54 54 54 54 54 54 54 55 55 56 56 56 55 54 53 53 52 52 51 49
43 44 45 46 47 48 48 48 48 49 49 50 50 51 51 51 51 51 52 52 52 53 53 54 55 55 55 55 55 54 54 55 56 56 56 56 56 55 55 54 54 54 53
Wind_Direction
259 257 257 256 255 253 252 253 253 253 254 254 254 254 254 256 258 256 256 254 253 253 252 250 246 243 243 243 241 235 227 222 218 210 206 206 204 201 197 195 194 194 191
260 259 256 255 254 254 254 254 256 256 255 255 255 256 256 256 257 255 256 255 254 253 253 252 249 247 244 242 241 238 231 225 223 219 214 213 210 209 207 205 205 206 204
260 259 256 255 255 255 256 257 257 258 257 258 257 257 258 258 259 255 255 255 253 252 252 252 251 250 247 243 240 238 234 231 229 226 222 219 217 216 215 215 217 218 217
260 258 256 255 255 256 258 259 258 258 258 258 257 256 256 258 259 258 256 255 253 252 251 251 250 249 247 245 242 240 237 235 232 230 228 225 223 224 224 224 225 227 226
259 257 255 254 254 256 257 258 259 259 259 259 258 257 255 256 258 258 256 257 254 253 252 251 249 247 246 245 244 242 240 238 234 232 232 230 229 228 229 230 230 231 232
258 257 256 255 253 254 256 257 258 259 259 258 258 258 257 256 256 256 255 256 256 255 254 251 249 247 246 245 245 245 242 240 238 235 233 233 234 234 233 233 232 233 233
258 257 256 256 255 254 255 255 256 257 258 258 257 258 258 257 257 256 255 254 255 256 255 252 249 247 246 245 245 246 244 241 240 238 236 236 237 236 236 235 234 234 236
258 257 256 256 256 254 255 255 256 256 257 258 257 258 258 258 257 257 256 256 255 255 254 253 250 249 247 246 246 246 245 243 242 241 239 239 238 238 239 240 239 238 238
258 257 256 256 256 255 254 255 255 255 255 257 257 256 257 257 257 258 257 257 256 256 253 251 251 250 249 247 246 246 245 244 244 243 241 240 240 240 240 241 241 242 242
259 257 257 256 255 255 255 255 255 255 256 256 257 257 257 257 258 258 258 257 257 256 254 252 251 250 248 247 246 246 245 245 244 243 242 240 240 241 241 241 241 243 246
260 259 258 257 256 255 255 255 255 256 256 256 257 258 258 258 258 257 258 258 258 257 255 254 252 250 247 246 246 246 245 245 244 244 242 240 241 242 243 243 244 245 247
261 260 258 257 256 255 255 255 256 256 256 255 256 258 258 259 258 258 257 257 257 258 257 255 252 251 249 246 245 245 245 245 244 244 243 242 242 243 244 245 246 247 248
264 262 259 258 257 256 255 255 255 256 257 257 257 258 259 259 259 259 258 258 257 257 256 255 253 252 251 248 246 245 245 245 245 244 244 244 244 244 245 246 247 248 250
265 264 261 260 259 258 257 256 256 256 256 257 258 259 260 260 259 259 260 259 258 257 256 255 253 251 251 250 247 246 245 246 245 245 245 245 245 245 246 246 248 249 251
265 264 263 261 259 259 258 257 257 258 258 258 259 259 259 260 260 259 259 260 258 257 256 255 253 251 250 250 249 247 247 246 246 246 245 246 246 247 247 248 248 249 250
266 265 264 262 260 259 259 259 259 259 259 259 260 260 260 261 260 260 259 259 258 258 257 255 254 252 250 250 249 248 247 247 247 247 247 247 248 248 248 249 250 251 251
267 267 265 263 261 260 260 260 260 260 260 260 260 261 261 261 261 260 259 258 258 257 257 255 254 253 251 250 249 248 247 247 247 247 247 248 248 249 249 250 250 251 252
268 268 266 263 262 261 260 260 260 260 260 260 260 261 261 261 260 261 259 258 257 256 256 255 254 253 252 251 249 247 247 247 246 247 248 248 248 249 250 250 250 251 252
268 268 267 265 263 261 261 260 261 260 260 260 261 261 261 261 261 260 259 257 256 255 255 254 253 252 252 251 249 248 248 248 248 247 248 249 249 250 250 250 251 251 252
269 268 267 265 264 264 263 262 262 261 260 260 260 261 260 261 260 260 259 258 257 256 255 255 253 252 252 251 250 249 248 248 248 249 249 249 249 250 250 250 251 252 252
269 268 267 266 266 266 265 265 263 263 262 261 260 261 261 261 261 261 260 259 257 257 255 255 254 253 252 251 250 250 249 248 248 249 249 249 249 249 250 250 251 252 252
271 269 268 268 267 267 267 266 265 264 263 262 261 261 261 261 260 261 261 259 259 257 255 255 255 254 253 251 250 249 249 248 248 248 249 249 249 249 249 250 251 252 253
272 271 270 269 268 269 268 268 266 265 265 263 262 262 262 261 261 260 259 259 258 258 257 255 255 254 253 252 251 249 249 248 248 248 248 248 248 248 249 249 250 251 252
274 273 272 271 270 270 269 268 267 266 264 263 263 263 262 261 260 260 259 258 258 258 257 255 255 254 253 252 252 251 250 250 249 248 248 248 248 248 249 249 250 250 251
276 275 274 273 273 272 270 269 268 268 267 265 263 262 261 261 260 259 259 259 258 258 257 256 255 254 254 253 253 252 251 251 251 250 249 248 248 248 248 249 249 250 250
278 278 277 276 275 274 272 270 269 269 268 267 264 261 261 260 259 258 258 258 258 258 258 256 256 255 255 254 254 253 253 252 251 250 250 249 249 248 248 248 249 250 250
Height
5846 5846 5846 5846 5847 5847 5847 5847 5847 5848 5848 5848 5849 5849 5849 5850 5850 5850 5850 5851 5851 5851 5851 5851 5852 5852 5852 5852 5852 5853 5853 5853 5853 5854 5854 5855 5855 5855 5856 5856 5857 5857 5857
5843 5844 5844 5844 5844 5845 5845 5845 5846 5846 5846 5846 5847 5847 5847 5848 5848 5848 5848 5849 5849 5849 5850 5850 5850 5850 5851 5851 5851 5852 5852 5852 5853 5853 5853 5854 5854 5855 5855 5856 5856 5856 5857
5841 5841 5841 5842 5842 5842 5842 5843 5843 5843 5844 5844 5844 5845 5845 5845 5846 5846 5846 5846 5847 5847 5847 5848 5848 5848 5849 5849 5850 5850 5851 5851 5851 5852 5852 5853 5853 5854 5854 5855 5855 5856 5856
5838 5838 5838 5839 5839 5839 5839 5840 5840 5841 5841 5841 5842 5842 5842 5843 5843 5843 5844 5844 5844 5845 5845 5845 5846 5846 5847 5847 5848 5848 5849 5849 5850 5851 5851 5852 5852 5853 5853 5854 5854 5854 5855
5834 5834 5835 5835 5835 5836 5836 5836 5837 5837 5838 5838 5838 5839 5839 5840 5840 5840 5841 5841 5841 5842 5842 5843 5843 5844 5844 5845 5846 5846 5847 5847 5848 5849 5849 5850 5851 5851 5852 5852 5853 5853 5854
5830 5830 5830 5831 5831 5832 5832 5833 5833 5834 5834 5834 5835 5835 5835 5836 5836 5837 5837 5837 5838 5838 5839 5840 5840 5841 5842 5842 5843 5843 5844 5845 5846 5846 5847 5848 5849 5849 5850 5850 5851 5851 5852
5825 5825 5826 5826 5827 5827 5828 5828 5829 5829 5830 5830 5831 5831 5831 5832 5832 5833 5833 5834 5834 5835 5836 5836 5837 5838 5838 5839 5840 5840 5841 5842 5843 5844 5844 5845 5846 5847 5847 5848 5849 5849 5850
5819 5820 5820 5821 5822 5823 5823 5824 5824 5825 5826 5826 5826 5827 5827 5827 5828 5828 5829 5829 5830 5831 5832 5832 5833 5834 5835 5835 5836 5837 5838 5839 5840 5840 5841 5842 5843 5844 5844 5845 5846 5847 5847
5813 5814 5814 5815 5816 5817 5818 5818 5819 5820 5820 5821 5821 5822 5822 5823 5823 5824 5824 5825 5825 5826 5827 5828 5828 5829 5830 5831 5832 5833 5834 5835 5836 5837 5838 5839 5840 5841 5841 5842 5843 5844 5845
5807 5808 5808 5809 5809 5810 5811 5812 5813 5814 5814 5815 5816 5816 5817 5818 5818 5819 5819 5820 5820 5821 5821 5822 5823 5824 5825 5826 5827 5828 5830 5831 5832 5833 5834 5835 5836 5837 5838 5839 5840 5840 5841
5800 5801 5802 5802 5803 5804 5804 5805 5806 5807 5808 5809 5810 5810 5811 5812 5812 5813 5813 5814 5815 5815 5816 5817 5817 5819 5819 5821 5822 5823 5825 5826 5827 5828 5830 5831 5832 5833 5834 5835 5836 5837 5838
5793 5793 5794 5795 5796 5797 5797 5798 5799 5800 5801 5802 5803 5804 5804 5805 5806 5806 5807 5808 5808 5809 5810 5811 5811 5812 5814 5815 5816 5817 5819 5820 5822 5823 5825 5826 5827 5828 5829 5830 5831 5833 5834
5786 5786 5786 5787 5788 5789 5789 5790 5791 5792 5793 5794 5795 5796 5797 5798 5798 5799 5800 5800 5801 5802 5803 5804 5805 5806 5807 5808 5810 5811 5813 5815 5816 5818 5819 5821 5822 5823 5824 5825 5827 5828 5829
5778 5778 5778 5778 5779 5780 5781 5782 5783 5784 5785 5786 5787 5788 5789 5790 5791 5791 5792 5792 5793 5794 5795 5796 5797 5798 5800 5801 5803 5804 5806 5808 5810 5811 5813 5815 5816 5818 5819 5820 5821 5822 5824
5769 5769 5769 5770 5770 5771 5772 5773 5774 5775 5776 5777 5778 5779 5780 5781 5782 5782 5783 5784 5784 5785 5786 5788 5789 5790 5792 5793 5795 5797 5799 5801 5803 5804 5806 5808 5810 5811 5813 5814 5815 5816 5818
5760 5760 5760 5760 5761 5762 5763 5763 5764 5765 5766 5768 5769 5770 5770 5771 5772 5773 5774 5774 5775 5776 5777 5778 5779 5781 5783 5784 5787 5789 5791 5793 5795 5797 5799 5801 5803 5804 5806 5807 5809 5810 5811
5751 5750 5750 5750 5751 5751 5752 5753 5754 5755 5756 5757 5758 5759 5760 5761 5762 5762 5763 5764 5765 5766 5767 5768 5770 5771 5773 5775 5777 5780 5782 5784 5786 5789 5791 5793 5795 5797 5799 5800 5802 5803 5805
5741 5740 5740 5740 5740 5741 5741 5742 5743 5744 5745 5746 5746 5747 5748 5749 5750 5751 5752 5753 5754 5755 5756 5758 5759 5761 5763 5765 5767 5770 5772 5775 5777 5780 5782 5784 5787 5789 5791 5792 5794 5796 5797
5730 5730 5729 5729 5729 5729 5729 5730 5730 5731 5732 5733 5734 5735 5736 5737 5738 5739 5739 5741 5742 5743 5744 5746 5748 5750 5752 5754 5757 5759 5762 5764 5767 5770 5772 5775 5777 5780 5782 5784 5786 5788 5789
5719 5718 5718 5717 5717 5717 5717 5717 5718 5718 5719 5720 5721 5722 5723 5723 5724 5725 5727 5728 5729 5731 5732 5734 5736 5737 5740 5742 5745 5748 5751 5754 5756 5759 5762 5765 5768 5770 5772 5775 5777 5778 5780
5708 5707 5706 5705 5705 5705 5705 5705 5705 5705 5706 5707 5707 5708 5709 5710 5711 5712 5713 5714 5716 5718 5719 5721 5723 5725 5727 5730 5733 5736 5739 5742 5745 5748 5751 5754 5757 5760 5762 5764 5767 5769 5771
5696 5695 5694 5693 5693 5692 5692 5692 5692 5692 5693 5693 5694 5694 5695 5696 5697 5698 5699 5700 5702 5704 5706 5708 5710 5712 5714 5716 5719 5722 5726 5730 5733 5736 5739 5742 5745 5748 5751 5753 5756 5759 5761
5684 5683 5682 5681 5680 5679 5679 5679 5678 5678 5679 5680 5680 5680 5680 5681 5682 5683 5685 5686 5688 5690 5692 5694 5696 5698 5701 5703 5705 5709 5712 5716 5720 5723 5726 5729 5733 5736 5739 5742 5745 5747 5750
5672 5671 5669 5668 5667 5666 5665 5665 5665 5665 5665 5665 5665 5666 5666 5666 5667 5668 5670 5672 5673 5675 5677 5680 5682 5684 5686 5689 5692 5694 5698 5702 5705 5710 5713 5716 5720 5724 5727 5730 5733 5735 5738
5660 5659 5657 5656 5654 5653 5652 5651 5651 5650 5650 5650 5651 5651 5651 5652 5653 5654 5656 5657 5659 5661 5663 5665 5667 5670 5672 5675 5678 5680 5683 5687 5690 5695 5699 5703 5706 5710 5713 5717 5720 5723 5725
5648 5646 5644 5642 5641 5639 5638 5637 5636 5636 5636 5636 5636 5636 5637 5638 5639 5640 5641 5643 5645 5646 5649 5651 5653 5655 5657 5660 5663 5666 5668 5672 5676 5679 5684 5688 5692 5696 5699 5703 5706 5710 5713